Regional Weather Roundup
Issued by NWS

Home | Current Version | Previous Version | Graphics & Text | Print | Product List | Glossary On
Versions: 1 2 3 4 5 6 7 8 9 10 11 12 13 14 15 16 17 18 19 20 21 22 23 24 25 26 27 28 29 30 31 32 33 34 35 36 37 38 39 40 41 42 43 44 45 46 47 48 49 50
000
ASUS43 KLMK 021010
RWRKY
KENTUCKY REGIONAL WEATHER ROUNDUP
NATIONAL WEATHER SERVICE LOUISVILLE KY
500 AM EST MON MAR 02 2015

NOTE "FAIR" INDICATES FEW OR NO CLOUDS BELOW 12,000 FEET
WITH NO SIGNIFICANT WEATHER AND/OR OBSTRUCTIONS TO VISIBILITY.

KYZ001>023-026-027-061>063-070>075-021100-
WESTERN AND SOUTH CENTRAL KENTUCKY

CITY           SKY/WX    TMP DP  RH WIND       PRES   REMARKS
PADUCAH        PTCLDY    28  22  78 N9        30.50R WCI  19
HENDERSON      CLEAR     27  19  74 N6        30.51R WCI  20
OWENSBORO      CLEAR     27  21  77 N6        30.50R WCI  21
HOPKINSVILLE   CLOUDY    30  27  86 N12       30.46R WCI  21
BOWLING GREEN  CLOUDY    32  28  85 NW8       30.45R WCI  25
GLASGOW        CLOUDY    32  30  93 N7        30.43R WCI  25
$$

KYZ024-025-028>034-038-045-046-053-021100-
NORTH CENTRAL KENTUCKY

CITY           SKY/WX    TMP DP  RH WIND       PRES   REMARKS
LOUISVILLE/SDF PTCLDY    27  21  78 NW12      30.47R WCI  17
LOUISVILLE/LOU PTCLDY    28  21  75 NW9       30.47R WCI  19
FORT KNOX      PTCLDY    26  21  79 NW10      30.44R WCI  17
$$

KYZ035>037-039>044-047>052-055>060-089>105-021100-
NORTHEAST KENTUCKY

CITY           SKY/WX    TMP DP  RH WIND       PRES   REMARKS
LEXINGTON      CLOUDY    30  27  88 NW15      30.40R WCI  19
COVINGTON      MOCLDY    23  17  78 W7        30.41R WCI  15
FRANKFORT      CLOUDY    30  25  81 N9        30.41R WCI  22
$$

KYZ054-064>069-076>088-106>120-021100-
SOUTHEAST KENTUCKY

CITY           SKY/WX    TMP DP  RH WIND       PRES   REMARKS
JACKSON        MIX PCPN  33  31  92 W7        30.34R FOG     WCI  27
LONDON         CLOUDY    35  31  85 NW7       30.35R WCI  29
SOMERSET       DRIZZLE   32  32 100 N6        30.40R WCI  26
MIDDLESBORO    CLOUDY    38  38 100 N7        30.32R WCI  33
MONTICELLO     LGT SNOW  35  35 100 N6        30.41R FOG     WCI  30
$$




USA.gov is the U.S. government's official web portal to all federal, state and local government web resources and services.